Hourly Data Report for November 27, 2021

MUSKOKA
ONTARIO
Current Station Operator: NAVCAN

44°58'29.000" N
79°18'12.000" W
281.90 m
6115529
71532
YQA

Download Data

Hourly Data (November 2021)
Hourly Data Report for November 27, 2021
TIME
LST
Temp Definition
°C
Dew Point Definition
°C
Rel Hum Definition
%
Precip. Amount Definition
mm

Wind Dir Definition
10's deg

Wind Spd Definition
km/h
Visibility Definition
km
Stn Press Definition
kPa
Hmdx Definition


Wind Chill Definition


Weather Definition


00:00 -6.8 -9.9 79 0.0 33 17 16.1 97.90   -13 Snow
01:00 -7.3 -10.4 79 0.0 33 17 16.1 97.93   -14 LegendNANA
02:00 -7.1 -9.9 81 0.0 33 17 16.1 97.96   -14 LegendNANA
03:00 -7.5 -10.1 82 0.0 32 13 16.1 97.98   -13 LegendNANA
04:00 -8.7 -10.9 84 0.0 32 13 16.1 97.97   -15 LegendNANA
05:00 -9.7 -11.5 87 0.0 34 9 16.1 98.00   -15 LegendNANA
06:00 -10.3 -12.4 85 0.0 32 11 16.1 98.04   -16 LegendNANA
07:00 -11.0 -14.0 79 0.0 35 8 16.1 98.07   -16 LegendNANA
08:00 -11.0 -13.2 84 0.0 1 4 16.1 98.06   -13 LegendNANA
09:00 -8.8 -13.5 69 0.0 LegendMM 4 16.1 98.05   -11 LegendNANA
10:00 -6.9 -15.1 53 0.0 29 8 16.1 98.07   -11 LegendNANA
11:00 -4.9 -12.3 56 0.0 28 13 16.1 98.07   -10 LegendNANA
12:00 -4.2 -10.8 60 0.0 31 11 16.1 97.99   -9 LegendNANA
13:00 -3.2 -10.1 59 0.0 32 13 16.1 97.91   -8 LegendNANA
14:00 -2.5 -11.2 52 0.0 27 13 16.1 97.85   -7 LegendNANA
15:00 -2.3 -10.3 54 0.0 23 15 16.1 97.82   -7 LegendNANA
16:00 -2.6 -9.6 59 0.0 29 11 16.1 97.83   -7 LegendNANA
17:00 -3.7 -9.4 65 0.0 31 9 16.1 97.84   -7 LegendNANA
18:00 -5.2 -9.0 75 0.0 32 8 16.1 97.82   -9 LegendNANA
19:00 -6.8 -9.2 83 0.0   0 16.1 97.81     LegendNANA
20:00 -8.9 -10.5 88 0.0   0 16.1 97.77     LegendNANA
21:00 -8.9 -10.4 89 0.0 15 5 16.1 97.75   -12 LegendNANA
22:00 -9.3 -10.5 91 0.0 17 5 16.1 97.73   -12 LegendNANA
23:00 -9.2 -10.4 91 0.0   0 16.1 97.69     LegendNANA

Notes on Data Quality.

Legend

  • E = Estimated
  • M = Missing
  • NA = Not Available*
  • [empty] = Indicates an unobserved value
Date modified: